Theta_e
284 285 285 285 286 286 286 287 288 289 290 291 293 294 294 293 294 294 294 293 293 292 292 292 292 294 295 296 297 298 298 297 295 299 301 301 300 300 300 301 299 298 298
282 282 282 282 283 283 282 283 284 285 286 287 288 289 290 290 290 289 289 289 289 288 289 289 289 291 292 293 293 293 294 295 293 292 295 296 296 297 297 295 295 294 295
280 280 280 280 280 280 280 281 282 283 283 283 284 286 287 287 287 287 287 287 287 287 288 287 287 287 287 288 290 290 291 292 293 291 291 293 293 294 293 292 291 292 291
278 278 278 278 278 279 279 280 280 281 281 282 283 284 286 285 284 284 285 285 286 286 286 285 284 284 284 286 287 287 287 288 289 288 288 288 289 290 289 288 287 289 288
276 277 277 278 278 278 278 279 279 280 280 281 282 283 284 284 284 283 282 283 284 283 283 283 284 282 284 285 285 284 284 284 285 285 284 285 285 285 284 286 284 285 286
276 276 277 277 277 277 277 278 278 278 279 280 280 280 281 282 284 284 281 280 281 280 280 281 281 281 282 283 284 284 284 281 281 281 281 280 281 282 283 283 282 281 280
275 275 276 276 276 276 276 276 276 277 278 278 278 278 278 280 282 282 281 280 280 279 279 279 279 280 280 281 282 282 282 282 283 282 279 280 279 281 282 281 281 281 280
273 272 273 274 273 274 274 274 274 276 275 277 275 276 277 277 280 280 279 278 278 278 279 278 278 277 278 280 279 279 279 280 280 280 280 281 281 283 284 283 281 281 281
270 270 270 271 271 271 272 272 273 273 273 274 274 274 273 274 278 279 277 277 276 276 276 277 276 276 279 280 278 276 275 276 278 279 279 279 279 280 280 279 277 276 275
268 268 269 270 270 269 270 271 271 272 272 273 273 273 273 272 277 278 277 276 275 275 276 275 276 277 279 279 276 274 272 274 275 275 273 274 276 276 278 278 277 274 275
267 268 268 268 269 269 269 269 270 270 270 270 270 271 272 271 273 276 277 276 275 274 274 273 275 278 278 278 277 273 274 276 273 271 271 271 272 273 274 275 275 274 271
266 266 266 266 267 268 267 268 268 268 268 268 268 268 270 270 272 274 275 277 276 274 273 273 275 277 276 276 274 275 275 274 270 269 269 269 269 270 271 272 272 272 274
264 263 264 264 265 266 266 266 266 266 266 267 267 267 267 269 270 272 273 276 275 274 274 275 276 275 273 272 272 273 271 269 268 267 266 267 268 270 269 269 270 270 270
260 261 263 262 263 264 264 265 265 264 264 266 266 266 267 267 268 269 272 273 274 273 274 271 272 271 270 270 268 269 268 268 267 266 266 267 267 266 266 267 266 266 265
262 262 262 262 261 262 263 263 264 266 266 266 266 267 266 265 268 273 274 273 273 274 267 265 265 265 265 265 266 266 266 266 265 265 265 264 264 265 265 266 265 264 263
261 262 261 261 261 261 261 260 264 267 268 269 269 269 269 270 272 273 273 274 275 275 264 261 262 263 263 263 263 264 264 264 264 264 264 263 263 263 263 263 264 262 261
260 261 260 260 260 260 259 259 258 260 264 265 266 267 268 269 271 271 271 273 272 268 260 259 260 260 261 262 262 262 262 263 263 263 262 262 262 262 261 261 261 261 260
258 258 259 259 259 258 258 258 257 256 256 257 261 264 266 268 268 269 270 268 260 260 257 257 258 259 260 260 261 261 261 262 262 262 261 261 261 261 260 260 260 259 259
258 258 258 258 257 257 257 256 256 256 255 254 255 257 260 263 266 267 267 259 258 257 257 256 257 258 258 259 259 260 260 260 261 261 261 260 261 260 260 260 260 259 259
256 257 256 256 255 255 255 255 255 254 254 253 254 254 254 255 256 257 257 256 254 255 256 256 256 257 257 258 258 259 260 260 261 261 261 261 261 261 260 260 260 260 259
255 255 255 254 254 254 254 253 254 253 253 253 253 255 263 263 258 256 255 254 253 253 255 256 256 257 257 258 258 258 259 260 261 261 261 261 262 261 262 262 261 261 260
254 253 252 251 252 253 252 253 253 252 252 252 254 255 261 256 254 253 254 254 254 254 255 255 256 256 257 257 258 258 259 259 260 261 262 262 263 263 262 262 261 261 260
252 251 250 250 251 251 252 251 251 252 252 252 253 253 253 253 252 253 253 254 254 254 255 255 255 256 257 257 258 258 258 259 261 262 262 262 262 262 263 262 262 261 260
250 251 251 251 251 251 252 252 252 252 252 252 252 252 253 253 253 253 253 254 254 254 255 255 255 255 256 256 258 258 259 260 262 262 262 262 262 262 263 263 263 262 261
249 250 250 252 251 252 252 252 252 252 252 253 253 253 253 253 253 253 253 253 253 253 254 254 255 255 255 255 256 257 257 258 259 261 261 262 263 263 263 263 263 263 263
250 250 251 252 251 251 251 252 253 253 253 254 253 253 253 253 253 253 253 253 252 253 253 254 254 254 254 255 256 257 259 262 262 264 266 267 267 268 269 270 270 265 263
Wind_Speed
12 12 12 11 12 12 11 11 11 10 10 10 10 10 11 11 11 9 9 9 9 7 7 7 7 7 6 6 5 4 3 3 6 5 4 8 9 10 11 10 10 10 9
11 11 13 12 12 12 12 12 10 11 10 10 10 10 11 11 11 10 10 9 9 9 9 8 9 7 8 7 5 5 4 4 4 10 8 6 9 11 11 12 9 9 10
11 12 12 12 12 12 12 11 11 11 11 11 11 11 11 11 12 11 9 9 8 9 9 9 10 10 9 8 7 7 6 6 6 8 9 7 8 8 10 11 10 11 8
11 11 12 12 11 10 10 11 11 10 10 10 10 9 10 11 12 10 9 9 9 9 10 10 10 11 10 10 8 9 9 8 8 7 8 9 8 8 7 10 10 8 12
11 11 11 10 10 10 11 10 10 11 10 10 10 10 9 10 9 10 9 9 9 8 9 9 9 10 13 13 7 9 9 8 7 8 9 9 9 8 9 8 11 12 12
10 10 9 9 9 10 9 9 9 10 10 10 10 10 10 7 15 16 10 8 8 9 8 9 9 10 11 15 16 15 12 10 9 8 7 10 12 10 9 10 10 10 10
9 9 9 9 9 9 9 9 9 9 8 9 10 9 10 10 16 14 12 7 7 8 8 8 8 7 10 11 12 13 11 13 13 10 11 10 13 11 12 13 12 12 13
9 9 9 9 8 9 8 8 8 7 7 7 8 8 7 8 13 14 12 7 7 8 8 8 8 9 10 12 11 11 10 10 10 9 12 12 13 13 12 10 12 14 13
8 8 7 7 7 7 7 7 6 5 6 6 6 6 6 7 13 14 9 7 7 8 7 7 9 9 14 18 12 12 12 11 12 17 18 21 23 23 19 11 10 11 13
7 7 7 7 6 6 6 6 5 5 5 4 5 6 7 7 12 14 10 5 7 6 5 6 9 9 16 17 12 11 11 12 13 12 13 13 14 14 18 11 9 11 11
5 5 6 7 6 6 5 5 5 5 5 5 5 5 6 7 8 13 12 7 6 5 5 6 6 15 17 18 18 10 13 15 12 10 9 9 9 10 8 8 11 11 11
5 6 6 6 5 5 6 5 6 5 5 5 5 5 5 6 9 10 11 12 11 6 6 5 7 16 16 17 13 17 19 15 7 7 7 8 8 9 9 9 12 12 10
5 5 5 5 6 5 5 6 5 5 4 4 4 4 4 5 5 11 11 12 11 7 6 10 13 15 15 11 14 16 11 7 7 8 8 9 9 9 11 10 10 12 13
4 4 4 5 4 5 3 2 2 3 3 4 5 5 4 5 5 6 6 5 8 8 9 3 9 10 10 10 7 8 7 7 8 9 9 9 8 8 8 8 9 9 10
4 3 4 3 3 3 4 2 3 3 5 3 3 4 4 5 6 12 11 7 7 9 3 3 5 6 7 7 7 6 7 7 8 8 8 9 9 9 9 8 8 9 10
4 2 2 2 2 2 3 4 6 6 9 9 9 8 4 12 15 15 15 17 17 15 4 4 6 6 7 8 8 8 8 8 8 8 9 9 10 9 9 9 9 9 10
3 1 1 1 1 2 3 4 5 5 8 8 11 14 14 13 15 16 17 17 11 9 2 5 6 6 7 8 8 8 9 8 9 8 9 9 10 10 11 10 9 9 10
2 1 0 0 1 2 2 3 3 5 7 7 10 15 14 15 16 17 16 10 6 6 2 6 6 7 7 8 8 8 9 9 8 9 9 9 10 10 10 11 10 11 10
3 2 1 0 1 3 3 4 4 4 5 5 5 7 9 14 16 12 12 2 5 7 6 6 6 7 7 8 8 8 9 10 10 10 10 10 10 9 11 11 11 15 14
3 4 3 2 2 3 3 4 4 4 5 5 5 5 3 4 3 3 3 3 4 6 7 7 7 7 8 8 8 8 9 10 10 9 10 11 10 10 11 12 11 12 12
3 3 4 3 3 3 4 3 4 4 5 6 7 6 15 8 6 6 6 5 6 6 7 7 7 7 7 8 8 9 10 11 11 11 11 11 11 11 11 12 12 12 12
4 3 3 4 3 3 4 4 4 5 6 7 8 6 14 4 5 6 7 7 6 6 6 7 8 8 8 9 9 10 11 12 12 11 12 12 12 12 12 13 13 12 12
4 4 3 3 3 4 5 5 6 6 7 7 7 7 6 5 5 6 7 7 7 7 7 7 8 9 9 9 9 10 12 13 13 12 13 14 13 13 13 13 14 13 13
5 5 4 4 3 5 6 7 6 7 8 8 7 7 7 6 7 8 8 7 7 8 8 8 8 12 12 11 10 11 12 13 12 14 18 15 15 16 14 14 14 17 15
4 4 4 5 6 6 6 6 7 7 8 8 7 7 7 6 7 8 7 7 7 8 9 9 9 12 14 17 17 20 21 24 20 20 14 17 20 22 18 15 17 16 17
5 6 6 6 7 6 7 7 8 8 8 7 7 7 7 7 8 7 7 7 8 8 9 9 12 16 18 16 19 21 22 24 21 25 18 16 17 17 13 16 17 13 17
Wind_Direction
46 50 54 50 49 53 54 48 46 46 38 43 44 50 50 44 36 43 46 34 43 38 32 31 29 14 11 14 15 8 5 347 287 294 323 331 325 333 327 326 327 320 314
48 50 50 50 49 50 47 42 40 46 41 41 43 50 51 49 45 43 43 36 37 33 26 30 27 18 24 21 14 3 344 324 290 295 290 304 316 323 318 318 319 311 310
49 54 52 48 48 49 45 41 39 41 40 40 42 47 49 47 43 36 35 32 34 35 31 33 28 24 22 8 2 357 343 335 323 308 305 320 315 319 325 315 320 314 316
52 54 54 47 47 48 46 44 43 38 42 44 44 46 50 52 44 32 33 33 36 40 40 39 35 32 22 11 10 4 353 340 329 317 315 317 327 331 315 324 323 323 316
54 51 48 48 46 46 45 43 43 44 40 41 46 43 51 49 40 36 28 35 41 44 41 37 45 32 19 19 15 6 355 346 337 332 320 321 324 333 332 331 314 317 312
55 52 46 47 48 48 46 44 47 46 45 49 47 51 47 45 34 39 32 36 42 40 34 35 29 26 21 17 11 7 1 350 342 327 324 321 323 326 323 322 315 319 319
52 44 39 39 40 39 40 41 38 43 47 58 49 47 46 32 26 26 28 32 48 39 33 30 20 24 6 360 359 356 351 343 334 328 321 323 317 316 309 307 302 295 289
55 46 34 33 37 33 35 35 28 34 40 58 51 47 56 35 26 28 25 30 39 39 39 27 23 9 356 352 356 346 349 343 342 338 327 322 313 312 306 314 312 300 290
52 46 36 33 46 39 41 30 25 33 39 47 59 55 49 37 26 27 33 35 36 33 16 33 12 0 348 356 357 356 344 334 335 332 329 324 316 315 314 309 303 301 298
38 34 28 24 43 42 33 28 21 22 39 40 53 40 46 34 19 26 40 32 28 19 15 17 6 341 358 357 359 350 336 333 335 335 328 325 325 318 317 312 310 302 302
42 48 42 28 28 27 35 35 30 32 38 39 43 36 37 32 13 19 16 30 17 5 359 350 345 341 356 353 348 340 327 328 339 325 319 317 317 317 318 322 318 310 302
55 57 48 40 36 26 17 25 37 35 32 26 19 19 15 14 359 3 2 9 7 354 343 328 324 348 346 338 337 326 328 337 321 315 313 312 312 311 316 313 303 295 289
75 64 55 51 43 29 33 13 15 20 18 8 5 354 348 2 343 337 333 350 348 342 324 322 346 341 336 334 325 327 334 317 309 305 305 303 305 309 306 296 294 296 295
83 69 65 54 38 28 21 29 3 347 349 342 337 328 323 339 322 304 297 329 319 315 311 16 343 338 330 318 312 318 315 313 307 300 298 299 301 303 298 301 299 301 296
99 84 64 55 36 26 358 315 331 304 285 309 292 292 316 321 306 318 326 326 317 309 70 16 342 333 327 317 316 312 310 308 303 297 296 298 297 298 295 299 294 297 291
121 116 89 66 14 15 345 321 318 315 330 330 335 327 320 308 311 318 323 320 317 339 33 348 319 313 304 310 310 310 308 302 302 300 296 294 294 296 294 292 289 287 289
106 111 77 58 24 11 342 338 330 325 334 346 349 340 322 308 318 319 316 310 344 360 358 308 296 296 297 300 301 300 299 298 298 288 287 288 289 288 292 290 288 286 285
132 173 125 41 357 333 324 317 323 321 324 320 335 336 326 326 321 317 313 349 336 341 292 293 292 293 293 291 290 290 292 293 289 288 286 284 282 281 285 283 283 282 282
192 196 156 349 278 287 296 292 285 293 293 292 304 304 305 316 315 307 323 334 295 289 290 283 271 276 278 280 281 283 283 285 286 286 282 278 276 275 274 275 274 275 274
206 219 216 231 248 262 264 281 296 292 291 281 281 283 289 280 246 248 252 261 257 263 271 270 275 270 271 274 281 283 286 286 285 282 279 276 276 271 271 273 271 272 271
192 200 211 227 240 249 256 262 269 271 273 278 274 261 290 308 311 301 290 263 246 254 262 268 278 281 281 279 277 279 283 285 283 282 278 276 275 274 269 267 268 267 267
190 203 210 225 242 258 253 255 261 260 261 266 282 285 302 299 273 274 278 275 273 264 265 271 276 273 272 273 275 277 280 282 282 280 278 279 278 274 271 267 266 264 263
197 215 231 238 233 250 258 246 244 246 257 260 268 275 269 256 251 259 269 274 275 277 272 264 267 274 270 266 264 266 274 276 278 280 280 281 280 275 272 269 266 262 256
190 209 227 241 240 243 246 254 249 251 260 262 259 259 264 265 265 264 264 267 268 271 270 268 265 266 276 274 273 269 266 270 275 278 282 278 276 278 272 268 264 260 260
199 218 227 239 241 245 252 253 257 255 251 251 260 258 261 257 262 262 262 262 263 267 271 269 266 269 270 275 274 277 276 279 276 277 277 273 270 271 265 261 259 258 256
211 219 231 232 234 232 238 248 250 249 251 255 252 255 259 261 260 262 265 265 267 268 270 274 274 271 275 278 277 279 283 286 288 287 285 282 282 281 276 283 289 247 248